Pompano Beach, FL

12:53 PM EDT on September 29, 2016 (GMT -0400)
Pompano Beach

Weather History for KPMP - March, 2012

Change the Weather History Date:

Monday, March 12, 2012

  Actual Average Record
Temperature  
Mean Temperature 74 °F -  
Max Temperature 78 °F 80 °F 89 °F (1967)
Min Temperature 71 °F 62 °F 44 °F (1969)
Cooling Degree Days 10    
Growing Degree Days 24 (Base 50)    
Moisture  
Dew Point 62 °F    
Average Humidity 68    
Maximum Humidity 84    
Minimum Humidity 54    
Precipitation  
Precipitation 0.00 in - - ()
Sea Level Pressure  
Sea Level Pressure 30.23 in    
Wind  
Wind Speed 15 mph (East)    
Max Wind Speed 20 mph    
Max Gust Speed 25 mph    
Visibility 10 miles    
Events Rain    
Averages and records for this station are not official NWS values.
T = Trace of Precipitation, MM = Missing Value Source: NWS Daily Summary

Daily Weather History Graph

Daily Weather History Graph

Search for Another Location

Airport or City:

Trip Planner

Search our weather history database for the weather conditions in past years. The results will help you decide how hot, cold, wet, or windy it might be!

Date:

Astronomy

Mar. 12, 2012 Rise Set
Actual Time 7:32 AM EDT 7:28 PM EDT
Civil Twilight 7:09 AM EDT 7:51 PM EDT
Nautical Twilight 6:42 AM EDT 8:17 PM EDT
Astronomical Twilight 6:15 AM EDT 8:44 PM EDT
Moon No Moon Rise 10:25 AM EDT (3/12)
Length of Visible Light 12h 41m
Length of Day
11h 55m
Waning Gibbous, 76% of the Moon is Illuminated
Mar 12
Waning Gibbous
Mar 14
Last Quarter
Mar 22
New
Mar 30
First Quarter
Apr 6
Full

Hourly Weather History & Observations

Time (EDT) Temp. Dew Point Humidity Pressure Visibility Wind Dir Wind Speed Gust Speed Precip Events Conditions
12:53 AM 73.0 °F 64.9 °F 76% 30.25 in 10.0 mi East 16.1 mph 25.3 mph N/A   Overcast
1:53 AM 73.0 °F 64.9 °F 76% 30.24 in 10.0 mi East 16.1 mph 23.0 mph N/A   Overcast
2:53 AM 73.0 °F 64.0 °F 73% 30.23 in 10.0 mi East 19.6 mph 25.3 mph N/A   Overcast
3:17 AM 73.4 °F 64.4 °F 73% 30.22 in 10.0 mi East 17.3 mph 25.3 mph N/A   Overcast
3:45 AM 71.6 °F 62.6 °F 73% 30.21 in 10.0 mi East 19.6 mph - N/A   Overcast
3:53 AM 72.0 °F 64.0 °F 76% 30.22 in 10.0 mi East 15.0 mph 24.2 mph N/A   Overcast
4:31 AM 71.6 °F 66.2 °F 83% 30.20 in 9.0 mi East 18.4 mph 24.2 mph 0.00 in Rain Light Rain
4:53 AM 71.1 °F 66.0 °F 84% 30.21 in 10.0 mi ENE 18.4 mph 25.3 mph 0.00 in   Overcast
5:13 AM 71.6 °F 64.4 °F 78% 30.20 in 10.0 mi ENE 16.1 mph 24.2 mph N/A   Overcast
5:33 AM 71.6 °F 64.4 °F 78% 30.20 in 10.0 mi ENE 17.3 mph 23.0 mph N/A   Overcast
5:53 AM 71.1 °F 64.0 °F 78% 30.21 in 10.0 mi ENE 18.4 mph 25.3 mph N/A   Overcast
6:53 AM 72.0 °F 63.0 °F 73% 30.23 in 10.0 mi ENE 17.3 mph 23.0 mph N/A   Overcast
7:53 AM 72.0 °F 62.1 °F 71% 30.25 in 10.0 mi ENE 15.0 mph 23.0 mph N/A   Mostly Cloudy
8:53 AM 73.0 °F 60.1 °F 64% 30.27 in 10.0 mi ENE 11.5 mph - N/A   Mostly Cloudy
10:53 AM 75.0 °F 63.0 °F 66% 30.30 in 10.0 mi East 15.0 mph 20.7 mph N/A   Scattered Clouds
11:53 AM 75.0 °F 62.1 °F 64% 30.30 in 10.0 mi East 16.1 mph - N/A   Mostly Cloudy
12:53 PM 78.1 °F 62.1 °F 58% 30.27 in 10.0 mi East 16.1 mph - N/A   Scattered Clouds
1:53 PM 77.0 °F 60.1 °F 56% 30.25 in 10.0 mi East 15.0 mph 23.0 mph N/A   Partly Cloudy
2:53 PM 77.0 °F 59.0 °F 54% 30.23 in 10.0 mi East 15.0 mph - N/A   Clear
3:53 PM 75.9 °F 60.1 °F 58% 30.22 in 10.0 mi East 9.2 mph - N/A   Scattered Clouds
4:53 PM 75.0 °F 60.1 °F 60% 30.21 in 10.0 mi ENE 10.4 mph - N/A   Mostly Cloudy
5:53 PM 75.0 °F 59.0 °F 57% 30.20 in 10.0 mi East 10.4 mph 16.1 mph N/A   Mostly Cloudy
6:53 PM 73.9 °F 57.9 °F 57% 30.21 in 10.0 mi East 11.5 mph - N/A   Overcast
7:53 PM 73.0 °F 60.1 °F 64% 30.21 in 10.0 mi East 8.1 mph - N/A   Scattered Clouds
8:53 PM 73.0 °F 59.0 °F 61% 30.22 in 10.0 mi ENE 5.8 mph - N/A   Scattered Clouds
9:53 PM 73.0 °F 60.1 °F 64% 30.23 in 10.0 mi East 9.2 mph - N/A   Scattered Clouds
10:53 PM 73.0 °F 61.0 °F 66% 30.24 in 10.0 mi East 12.7 mph - N/A   Mostly Cloudy
11:53 PM 73.0 °F 59.0 °F 61% 30.23 in 10.0 mi East 12.7 mph - N/A   Mostly Cloudy